Flag for Switzerland Weather past 2 weeks in Schaffhausen, Schaffhausen, Switzerland

Now
60 °F

Cool.


Feels Like: 60 °F
Forecast: 41 / 69 °F
Wind: 2 mph from Northwest

Location: Zurich-Kloten

Current Time: Sep 3, 2015 at 11:28:38 AM

Latest Report: Sep 3, 2015 at 10:00 AM


Visibility: N/A

Pressure: 29.98 "Hg

Humidity: 80%

Dew point: 53 °F

Location of SchaffhausenLocation

Historic Weather in Schaffhausen — Graph

°F

Schaffhausen temperature yesterday

Maximum temperature yesterday: 70 °F (at 4:00 PM)
Minimum temperature yesterday: 57 °F (at 7:00 AM)
Average temperature yesterday: 63 °F

Past Weeks' High & Low Weather Summary

 TemperatureHumidityPressure
High91 °F (Aug 30, 4:00 PM)100% (Aug 21, 8:00 AM)30.28 "Hg (Aug 21, 8:00 AM)
Low47 °F (Aug 26, 5:00 AM)24% (Aug 30, 3:00 PM)29.70 "Hg (Aug 24, 8:00 AM)
Average67 °F70%30.02 "Hg
* Reported Aug 19 10:00 AM — Sep 3 10:00 AM, Schaffhausen, Weather by CustomWeather, © 2015

Note: Actual official high and low records may vary slightly from our data, if they occured in-between our weather recording intervals... More about our weather records

Advertising

Schaffhausen weather history for previous 24 hours

 ConditionsComfort  
Time TempWeatherWind HumidityBarometerVisibility
10:00 AM
Thu, Sep 3
60 °FCool.2 mph80%29.98 "HgN/A
9:00 AM59 °FCool.1 mph81%29.98 "HgN/A
8:00 AM57 °FFog.1 mph91%29.97 "Hg6 mi
7:00 AM55 °FCool.2 mph93%29.97 "HgN/A
5:00 AM56 °FOvercast.3 mph92%29.97 "Hg9 mi
4:00 AM57 °FCool.3 mph93%29.97 "HgN/A
3:00 AM58 °FCool.3 mph89%29.96 "HgN/A
2:00 AM58 °FOvercast.2 mph89%29.97 "Hg12 mi
1:00 AM58 °FCool.5 mph87%29.97 "HgN/A
12:00 AM61 °FCool.2 mph84%29.96 "HgN/A
10:00 PM
Wed, Sep 2
64 °FMild.3 mph72%29.96 "HgN/A
9:00 PM64 °FMild.6 mph72%29.96 "HgN/A
8:00 PM64 °FOvercast.6 mph72%29.96 "Hg16 mi
7:00 PM67 °FMild.8 mph56%29.95 "HgN/A
6:00 PM68 °FMild.8 mph55%29.94 "HgN/A
5:00 PM69 °FScattered clouds.5 mph48%29.94 "Hg16 mi
4:00 PM70 °FMild.6 mph53%29.94 "HgN/A
3:00 PM68 °FMild.7 mph57%29.96 "HgN/A
2:00 PM69 °FScattered clouds.9 mph58%29.96 "Hg16 mi
1:00 PM67 °FMild.10 mph61%29.98 "HgN/A
12:00 PM66 °FMild.8 mph67%30.00 "HgN/A
11:00 AM63 °FPartly sunny.8 mph77%30.01 "Hg16 mi
Weather by CustomWeather, © 2015

See weather overviewHow to use our weather pages